Location: Clayton
(38.6426°N, 90.3237°W)
Time: 08:36:42
(UTC+00:00)

Daily predictions for brighter satellites

Satellite Brightness Start Highest point End
(mag) Time Altitude Azimuth Time Altitude Azimuth Time Altitude Azimuth
Cosmos 1869 4.3 12:00:02 10° SW 12:02:43 20° WNW 12:05:25 10° NNW
Lacrosse 4 Rocket 3.9 12:03:34 10° N 12:06:26 19° NE 12:09:18 10° E
Cosmos 1315 Rocket 3.1 12:06:22 10° S 12:10:02 66° E 12:13:45 10° NNE
Hubble Space Telescope 3.1 12:11:51 10° SSW 12:14:00 15° S 12:16:08 10° SE
Cosmos 2360 Rocket 2.2 12:09:38 10° SSW 12:15:12 66° WNW 12:20:48 10° NNE
Cosmos 2278 4.2 12:10:40 10° SW 12:15:54 39° WNW 12:21:11 10° N
USA 229 DEB 4.0 12:10:52 10° SSW 12:16:33 63° ESE 12:22:52 10° NE
USA 229 4.0 12:10:57 10° SSW 12:16:38 62° ESE 12:22:56 10° NE
DELTA 2 R/B (1) 3.6 12:11:41 10° WSW 12:17:15 87° SSE 12:22:51 10° E
ATLAS 3B R/B 3.6 12:11:21 10° SSW 12:18:37 62° ESE 12:26:19 10° NE
Cosmos 1356 Rocket 3.6 12:15:35 10° S 12:19:22 69° E 12:23:12 10° NNE
Cosmos 2333 4.2 12:15:42 10° SSW 12:21:23 74° WNW 12:27:04 10° NNE
GP-B 4.0 12:18:41 10° NNW 12:22:20 26° W 12:25:58 10° SW
Cosmos 1461 2.5 12:19:18 10° NW 12:22:57 70° WSW 12:26:31 10° SSE
Cosmos 1802 Rocket 4.0 12:17:50 10° SSW 12:23:59 63° W 12:30:15 10° N
Cosmos 1725 Rocket 4.0 12:20:15 10° SSW 12:26:22 66° W 12:32:32 10° N
